Regional Weather Roundup
Issued by NWS Green Bay, WI

Home | Current Version | Previous Version | Graphics & Text | Print | Product List | Glossary Off
Versions: 1 2 3 4 5 6 7 8 9 10 11 12 13 14 15 16 17 18 19 20 21 22 23 24 25 26 27 28 29 30 31 32 33 34 35 36 37 38 39 40 41 42 43 44 45 46 47 48 49 50

000
ASUS43 KGRB 290500
RWRGRB

NORTH-CENTRAL AND NORTHEAST WISCONSIN REGIONAL WEATHER ROUNDUP
NATIONAL WEATHER SERVICE GREEN BAY WI
1200 AM CDT THU JUN 29 2017

WIZ005-009-010>012-018-019-290600-
NORTH CENTRAL WISCONSIN

CITY           SKY/WX    TMP DP  RH WIND       PRES   REMARKS
IRONWOOD       CLOUDY    67  64  90 S6        29.55S
MANITOWISH WTR NOT AVBL
ARBOR VITAE    NOT AVBL
EAGLE RIVER    NOT AVBL
LAND O LAKES   NOT AVBL
RHINELANDER    CLOUDY    65  65 100 S6        29.62F
PHILLIPS       NOT AVBL
ANTIGO         NOT AVBL
TOMAHAWK       NOT AVBL
MERRILL        CLOUDY    66  66 100 S5        29.62S
$$

WIZ013-073-290600-
NORTHEAST WISCONSIN

CITY           SKY/WX    TMP DP  RH WIND       PRES   REMARKS
IRON MOUNTAIN  FOG       61  59  93 SE5       29.63S VSB 1/4
MARINETTE      CLOUDY    63  62  97 SW7       29.65S
$$

WIZ017-030-035>037-045-290600-
CENTRAL WISCONSIN

CITY           SKY/WX    TMP DP  RH WIND       PRES   REMARKS
MEDFORD        NOT AVBL
WAUSAU         CLOUDY    66  65  96 S7        29.61S
MOSINEE        NOT AVBL
MARSHFIELD     CLOUDY    65  63  93 S8        29.62R FOG
WISC RAPIDS    CLOUDY    67  65  93 CALM      29.64S
STEVENS POINT  NOT AVBL
WAUPACA        NOT AVBL
SHAWANO        NOT AVBL
CLINTONVILLE   NOT AVBL
WAUTOMA        CLOUDY    64  63  96 SE7       29.64F
$$

WIZ038-039-048-051-290600-
FOX VALLEY

CITY           SKY/WX    TMP DP  RH WIND       PRES   REMARKS
NWS GREEN BAY  CLOUDY    67  64  90 S13       29.65S
APPLETON       NOT AVBL
OSHKOSH        CLOUDY    66  63  90 VRB3      29.66R
FOND DU LAC    CLOUDY    67  62  84 S13       29.67F
$$

WIZ022-050-052-290600-
EAST CENTRAL WISCONSIN

CITY           SKY/WX    TMP DP  RH WIND       PRES   REMARKS
EPHRAIM        NOT AVBL
WASHINGTON ISL NOT AVBL
STURGEON BAY     N/A     62  60  93 S10       29.66S
MANITOWOC      NOT AVBL
SHEBOYGAN      CLOUDY    65  64  97 S14       29.69F
$$

LMZ563-521-522-541>543-290600-
LAKESHORE

STATION/POSITION TIME  TEMP    WIND        PRES    VSBY  WAVE
                       AIR SEA DIR/SP/G                  HT/PER
                 (UTC) (F)     (DEG/KT/KT) (MB)    (MI)  (FT/S)
SHEBOYGAN LKSHOR 0400   58     180/ 19/ 21 1006.2R
KEWAUNEE LKSHORE 0430   55     190/ 11/ 13 1004.7R
NORTHPORT PIER   0440   60     170/  9/ 15 1004.4S
N MID LAKE BUOY  0350   58 54  180/ 16/ 17 1005.0F         6/ 7
S GREEN BAY BUOY 0430   66     180/ 14/ 17 1003.8R
SISTER BAY LKSHO 0408   61     190/ 17/ 22   N/A
CHAMBERS ISLAND  0440   62     170/  5/ 11 1003.7S
MENOMINEE LKSHOR 0430          190/  7/ 12 1003.1S
$$



USA.gov is the U.S. government's official web portal to all federal, state and local government web resources and services.